GW4482 Weather Reports


time (UTC)temp
C
wind
direction
speed
KPH
gust
KPH
rain 1hr
cm
rain 24hr
cm
rain mn
cm
humidity
%
barometer
mb
20260507130039 12 98 3.2 6.4 0.00 0.00 0.00 88 1016.1
20260507124537 12 78 1.6 4.8 0.00 0.00 0.00 87 1016.0
20260507123040 13 0 1.6 4.8 0.00 0.00 0.00 87 1016.0
20260507121541 13 118 1.6 4.8 0.00 0.00 0.00 87 1016.1
20260507120045 13 101 0.0 3.2 0.00 0.00 0.00 87 1016.0
20260507114542 13 109 0.0 4.8 0.00 0.00 0.00 87 1015.9
20260507113043 13 85 0.0 3.2 0.00 0.00 0.00 87 1015.8
20260507111538 13 72 1.6 4.8 0.00 0.00 0.00 87 1016.0
20260507110104 13 104 1.6 3.2 0.00 0.00 0.00 87 1016.0
20260507104543 13 98 3.2 4.8 0.00 0.00 0.00 87 1016.1
20260507103040 13 0 1.6 3.2 0.00 0.00 0.00 88 1016.3
20260507101537 13 81 1.6 6.4 0.00 0.00 0.00 87 1016.3
20260507100040 13 0 0.0 4.8 0.00 0.00 0.00 87 1016.2
20260507094554 14 0 1.6 4.8 0.00 0.00 0.00 86 1016.4
20260507093045 15 134 1.6 4.8 0.00 0.00 0.00 86 1016.5
20260507091545 15 0 0.0 3.2 0.00 0.00 0.00 85 1016.5
20260507090043 15 11 0.0 4.8 0.00 0.00 0.00 86 1016.7
20260507084540 15 44 1.6 4.8 0.00 0.00 0.00 86 1016.8
20260507083040 15 36 0.0 3.2 0.00 0.00 0.00 86 1017.0
20260507081544 16 0 0.0 4.8 0.00 0.00 0.00 86 1017.3
20260507080044 16 13 0.0 4.8 0.00 0.00 0.00 85 1017.4
20260507074543 16 0 1.6 6.4 0.00 0.00 0.00 85 1017.3
20260507073052 16 0 0.0 1.6 0.00 0.00 0.00 85 1017.3
20260507071542 16 294 0.0 3.2 0.00 0.00 0.00 85 1017.3
20260507070044 16 0 1.6 4.8 0.00 0.00 0.00 85 1017.4
20260507064552 16 0 0.0 6.4 0.00 0.00 0.00 85 1017.6
20260507063047 16 0 1.6 4.8 0.00 0.00 0.00 84 1017.5
20260507061540 16 0 1.6 4.8 0.00 0.00 0.00 84 1017.5
20260507060037 16 301 1.6 4.8 0.00 0.00 0.00 83 1017.6
20260507054544 16 254 3.2 6.4 0.00 0.00 0.00 83 1017.5
20260507053042 16 266 3.2 11.3 0.00 0.00 0.00 82 1017.6
20260507051539 17 268 3.2 11.3 0.00 0.00 0.00 83 1017.7
20260507050038 17 269 1.6 11.3 0.00 0.00 0.00 81 1017.6
20260507044541 17 269 0.0 9.7 0.00 0.00 0.00 79 1017.5
20260507043047 18 298 3.2 9.7 0.00 0.00 0.00 79 1017.2
20260507041545 17 263 3.2 12.9 0.00 0.00 0.00 81 1017.3
20260507040040 17 315 3.2 8.0 0.00 0.00 0.00 80 1017.1
20260507034544 17 290 3.2 9.7 0.00 0.00 0.00 80 1017.0
20260507033053 17 270 3.2 12.9 0.00 0.00 0.00 80 1016.8
20260507031543 17 287 3.2 14.5 0.00 0.00 0.00 80 1016.5
20260507030041 17 342 4.8 16.1 0.00 0.00 0.00 79 1016.5
20260507024551 17 309 8.0 17.7 0.00 0.00 0.00 78 1016.4
20260507023037 18 277 3.2 12.9 0.00 0.00 0.00 77 1016.3
20260507021544 18 278 6.4 16.1 0.00 0.00 0.00 76 1016.2
20260507020040 18 271 9.7 19.3 0.00 0.00 0.00 77 1016.1
20260507014538 18 273 4.8 17.7 0.00 0.00 0.00 75 1016.0
20260507013039 19 292 9.7 19.3 0.00 0.00 0.00 74 1016.0
20260507011539 19 265 12.9 20.9 0.00 0.00 0.00 72 1016.1
20260507010040 19 238 11.3 20.9 0.00 0.00 0.00 72 1016.0
20260507004544 20 280 9.7 17.7 0.00 0.00 0.00 70 1016.0
20260507003042 20 9 8.0 22.5 0.00 0.00 0.00 70 1015.9
20260507001603 20 268 9.7 24.1 0.00 0.00 0.00 71 1015.8
20260507000037 20 219 9.7 27.4 0.00 0.00 0.00 71 1015.8
20260506234547 19 307 12.9 24.1 0.00 0.00 0.00 71 1015.8
20260506233045 20 287 9.7 27.4 0.00 0.00 0.00 69 1015.9
20260506231537 20 288 12.9 27.4 0.00 0.00 0.00 69 1016.0
20260506230041 19 257 14.5 27.4 0.00 0.00 0.00 71 1015.9
20260506224552 20 265 12.9 24.1 0.00 0.00 0.00 67 1016.2
20260506223037 20 205 9.7 20.9 0.00 0.00 0.00 67 1016.3
20260506221546 20 298 6.4 24.1 0.00 0.00 0.00 67 1016.5
20260506220044 20 281 8.0 19.3 0.00 0.00 0.00 65 1016.7
20260506214537 20 273 8.0 22.5 0.00 0.00 0.00 66 1016.8
20260506213040 20 263 11.3 24.1 0.00 0.00 0.00 67 1016.9
20260506211550 20 259 11.3 24.1 0.00 0.00 0.00 65 1017.0
20260506210041 20 322 12.9 22.5 0.00 0.00 0.00 66 1017.1
20260506204540 20 265 12.9 24.1 0.00 0.00 0.00 66 1017.1
20260506203037 19 264 12.9 22.5 0.00 0.00 0.00 67 1017.1
20260506201537 19 265 11.3 27.4 0.00 0.00 0.00 68 1017.2
20260506200041 19 284 16.1 24.1 0.00 0.00 0.00 68 1017.2
20260506194544 20 282 12.9 22.5 0.00 0.00 0.00 66 1017.5
20260506193043 18 288 14.5 22.5 0.00 0.00 0.00 67 1017.6
20260506191544 19 274 12.9 22.5 0.00 0.00 0.00 66 1017.6
20260506190038 19 261 12.9 22.5 0.00 0.00 0.00 65 1017.8
20260506184545 19 265 9.7 20.9 0.00 0.00 0.00 66 1017.9
20260506183042 19 265 8.0 20.9 0.00 0.00 0.00 66 1018.0
20260506181552 18 314 11.3 22.5 0.00 0.00 0.00 65 1018.1
20260506180049 18 272 11.3 20.9 0.00 0.00 0.00 67 1018.1
20260506174545 19 331 11.3 19.3 0.00 0.00 0.00 64 1018.2
20260506173047 18 287 8.0 19.3 0.00 0.00 0.00 65 1018.3
20260506171551 18 265 6.4 14.5 0.00 0.00 0.00 64 1018.3
20260506170045 18 311 8.0 16.1 0.00 0.00 0.00 66 1018.3
20260506164538 18 241 4.8 16.1 0.00 0.00 0.00 66 1018.2
20260506163037 18 273 3.2 16.1 0.00 0.00 0.00 65 1018.3
20260506161537 17 0 1.6 14.5 0.00 0.00 0.00 67 1018.2
20260506160041 17 32 3.2 12.9 0.00 0.00 0.00 68 1018.2
20260506154540 17 254 3.2 12.9 0.00 0.00 0.00 67 1018.4
20260506153038 17 16 1.6 8.0 0.00 0.00 0.00 69 1018.3
20260506151539 16 0 0.0 6.4 0.00 0.00 0.00 71 1018.4
20260506150038 15 118 3.2 6.4 0.00 0.00 0.00 72 1018.5
20260506144541 15 97 3.2 9.7 0.00 0.03 0.00 75 1018.3
20260506143036 14 103 4.8 9.7 0.00 0.03 0.00 77 1018.5
20260506141543 13 106 4.8 9.7 0.00 0.03 0.00 79 1018.3
20260506140039 13 107 3.2 6.4 0.00 0.03 0.00 81 1018.3
20260506134538 12 69 1.6 8.0 0.00 0.10 0.00 83 1018.2
20260506133039 12 115 1.6 6.4 0.00 0.10 0.00 84 1018.0
20260506131552 12 129 3.2 6.4 0.00 0.10 0.00 83 1017.9